Terug naar catalogus

ARIANE 2 DEB

LostGTO
NORAD 33555·DEBRIS·🇫🇷 France

Gelanceerd Jan 27, 1989 vanaf Guiana Space Centre

Loading…

TLE

VerouderdSource: Space-Track

Epoch: Apr 23, 2019, 16:28 UTC

1 33555U 89006AX  19113.68614999 -.00000143  00000-0  13900-2 0  9995
2 33555   8.0733 246.8892 7096702 160.8062 356.0488  2.23842630106716

Volg ARIANE 2 DEB in realtime met AllMySat

Download on the App Store